Weather History for KACT - July, 2013

Change the Weather History Date:

Saturday, July 13, 2013

  Actual Average Record
Temperature  
Mean Temperature 90 °F 85 °F  
Max Temperature 104 °F 96 °F 107 °F (1933)
Min Temperature 76 °F 74 °F 63 °F (1975)
Degree Days  
Heating Degree Days 0 0  
Month to date heating degree days 0 0  
Since 1 June heating degree days 0 0  
Since 1 July heating degree days 0 0  
Cooling Degree Days 25 20  
Month to date cooling degree days 259 253  
Year to date cooling degree days 1228 1193  
Since 1 June cooling degree days 811 741  
Growing Degree Days 40 (Base 50)    
Moisture  
Dew Point 63 °F    
Average Humidity 46    
Maximum Humidity 69    
Minimum Humidity 23    
Precipitation  
Precipitation 0.00 in 0.05 in 1.30 in (1972)
Month to date precipitation 0.00 0.78  
Year to date precipitation 15.71 19.10  
Sea Level Pressure  
Sea Level Pressure 29.89 in    
Wind  
Wind Speed 6 mph (ESE)    
Max Wind Speed 18 mph    
Max Gust Speed 24 mph    
Visibility 10 miles    
Events      
T = Trace of Precipitation, MM = Missing Value Source: NWS Daily Summary

Daily Weather History Graph

Daily Weather History Graph

Search for Another Location

Airport or City:

Trip Planner

Search our weather history database for the weather conditions in past years. The results will help you decide how hot, cold, wet, or windy it might be!

Date:

Astronomy

Jul. 13, 2013 Rise Set
Actual Time 6:33 AM CDT 8:35 PM CDT
Civil Twilight 6:05 AM CDT 9:03 PM CDT
Nautical Twilight 5:32 AM CDT 9:36 PM CDT
Astronomical Twilight 4:56 AM CDT 10:12 PM CDT
Moon 11:28 AM CDT (7/13) 11:41 PM CDT (7/13)
Length of Visible Light 14h 57m
Length of Day
14h 02m
Waxing Crescent, 26% of the Moon is Illuminated
Jul 13
Waxing Crescent
Jul 15
First Quarter
Jul 22
Full
Jul 29
Last Quarter
Aug 6
New

Hourly Weather History & Observations

Time (CDT) Temp. Heat Index Dew Point Humidity Pressure Visibility Wind Dir Wind Speed Gust Speed Precip Events Conditions
12:51 AM 84.9 °F 86.6 °F 64.9 °F 51% 29.89 in 10.0 mi East 6.9 mph - N/A   Clear
1:51 AM 82.9 °F 84.6 °F 64.9 °F 54% 29.90 in 10.0 mi SE 6.9 mph - N/A   Clear
2:51 AM 82.9 °F 84.6 °F 64.9 °F 54% 29.90 in 10.0 mi SSE 6.9 mph - N/A   Clear
3:51 AM 81.0 °F 83.3 °F 66.9 °F 62% 29.90 in 10.0 mi South 8.1 mph - N/A   Clear
4:51 AM 80.1 °F 82.3 °F 66.9 °F 64% 29.89 in 10.0 mi SSW 8.1 mph - N/A   Clear
5:51 AM 77.0 °F - 66.0 °F 69% 29.91 in 10.0 mi SW 4.6 mph - N/A   Clear
6:51 AM 78.1 °F - 66.0 °F 66% 29.93 in 10.0 mi Calm Calm - N/A   Clear
7:51 AM 81.0 °F 83.8 °F 68.0 °F 65% 29.95 in 10.0 mi Calm Calm - N/A   Clear
8:51 AM 84.9 °F 88.2 °F 68.0 °F 57% 29.96 in 10.0 mi Calm Calm - N/A   Scattered Clouds
9:51 AM 90.0 °F 92.4 °F 66.0 °F 45% 29.96 in 10.0 mi Calm Calm - N/A   Partly Cloudy
10:51 AM 93.0 °F 95.9 °F 66.0 °F 41% 29.95 in 10.0 mi Calm Calm - N/A   Clear
11:51 AM 96.1 °F 98.8 °F 64.9 °F 36% 29.94 in 10.0 mi SW 5.8 mph - N/A   Clear
12:51 PM 97.0 °F 99.3 °F 64.0 °F 34% 29.92 in 10.0 mi Calm Calm - N/A   Mostly Cloudy
1:51 PM 100.9 °F 103.3 °F 63.0 °F 29% 29.90 in 10.0 mi Variable 3.5 mph - N/A   Clear
2:51 PM 102.9 °F 104.2 °F 61.0 °F 25% 29.87 in 10.0 mi Variable 4.6 mph - N/A   Partly Cloudy
3:51 PM 100.9 °F 101.6 °F 60.1 °F 26% 29.86 in 10.0 mi East 5.8 mph - N/A   Scattered Clouds
4:51 PM 102.0 °F 102.7 °F 60.1 °F 25% 29.84 in 10.0 mi East 8.1 mph - N/A   Clear
5:51 PM 102.9 °F 103.0 °F 57.9 °F 23% 29.83 in 10.0 mi East 6.9 mph - N/A   Partly Cloudy
6:51 PM 100.0 °F 100.2 °F 59.0 °F 26% 29.82 in 10.0 mi ENE 10.4 mph 18.4 mph N/A   Clear
7:51 PM 98.1 °F 97.7 °F 59.0 °F 27% 29.82 in 10.0 mi ENE 8.1 mph - N/A   Clear
8:51 PM 93.9 °F 92.9 °F 57.9 °F 30% 29.84 in 10.0 mi East 9.2 mph - N/A   Clear
9:51 PM 91.0 °F 89.7 °F 57.0 °F 32% 29.86 in 10.0 mi East 10.4 mph - N/A   Clear
10:51 PM 88.0 °F 86.7 °F 57.0 °F 35% 29.88 in 10.0 mi East 8.1 mph - N/A   Clear
11:51 PM 87.1 °F 85.7 °F 55.9 °F 35% 29.90 in 10.0 mi East 9.2 mph - N/A   Clear